Time,TemperatureF,DewpointF,PressureIn,WindDirection,WindDirectionDegrees,WindSpeedMPH,WindSpeedGustMPH,Humidity,HourlyPrecipIn,Conditions,Clouds,dailyrainin,SolarRadiationWatts/m^2,SoftwareType,DateUTC
2013-02-13 00:00:00,31.5,29.2,29.93,WNW,284,0.0,0.0,91,0.00,,,0.00,0,Wunderground v.1.15,2013-02-13 05:00:00,
2013-02-13 00:02:00,31.5,29.2,29.93,WNW,282,0.0,0.0,91,0.00,,,0.00,0,Wunderground v.1.15,2013-02-13 05:02:00,
2013-02-13 00:04:00,31.4,29.1,29.93,WNW,284,1.0,1.0,91,0.00,,,0.00,0,Wunderground v.1.15,2013-02-13 05:04:00,
2013-02-13 00:07:00,31.3,29.0,29.93,WNW,284,1.0,1.0,91,0.00,,,0.00,0,Wunderground v.1.15,2013-02-13 05:07:00,
2013-02-13 00:12:00,31.2,28.9,29.94,WNW,284,0.0,0.0,91,0.00,,,0.00,0,Wunderground v.1.15,2013-02-13 05:12:00,
2013-02-13 00:17:00,31.1,28.8,29.94,WNW,284,0.0,0.0,91,0.00,,,0.00,0,Wunderground v.1.15,2013-02-13 05:17:00,
2013-02-13 00:22:00,31.0,28.7,29.93,WNW,284,0.0,0.0,91,0.00,,,0.00,0,Wunderground v.1.15,2013-02-13 05:22:00,
2013-02-13 00:28:00,30.7,28.1,29.93,WNW,284,0.0,0.0,90,0.00,,,0.00,0,Wunderground v.1.15,2013-02-13 05:28:00,
2013-02-13 00:33:00,30.6,28.0,29.93,WNW,285,0.0,0.0,90,0.00,,,0.00,0,Wunderground v.1.15,2013-02-13 05:33:00,
2013-02-13 00:39:00,30.4,27.8,29.93,WNW,284,0.0,0.0,90,0.00,,,0.00,0,Wunderground v.1.15,2013-02-13 05:39:00,
2013-02-13 00:44:00,30.2,27.9,29.93,WNW,284,0.0,0.0,91,0.00,,,0.00,0,Wunderground v.1.15,2013-02-13 05:44:00,
2013-02-13 00:50:00,30.1,27.8,29.93,WNW,284,0.0,0.0,91,0.00,,,0.00,0,Wunderground v.1.15,2013-02-13 05:50:00,
2013-02-13 00:55:00,30.0,28.0,29.92,WNW,284,0.0,0.0,92,0.00,,,0.00,0,Wunderground v.1.15,2013-02-13 05:55:00,
2013-02-13 01:00:00,29.7,27.4,29.92,WNW,284,0.0,1.0,91,0.00,,,0.00,0,Wunderground v.1.15,2013-02-13 06:00:00,
2013-02-13 01:06:00,29.6,27.6,29.92,WNW,284,1.0,3.0,92,0.00,,,0.00,0,Wunderground v.1.15,2013-02-13 06:06:00,
2013-02-13 01:11:00,29.6,27.8,29.92,WNW,284,1.0,1.0,93,0.00,,,0.00,0,Wunderground v.1.15,2013-02-13 06:11:00,
2013-02-13 01:17:00,29.5,27.5,29.92,WNW,284,0.0,1.0,92,0.00,,,0.00,0,Wunderground v.1.15,2013-02-13 06:17:00,
2013-02-13 01:22:00,29.4,27.4,29.91,WNW,285,0.0,0.0,92,0.00,,,0.00,0,Wunderground v.1.15,2013-02-13 06:22:00,
2013-02-13 01:28:00,29.1,27.1,29.90,NNE,31,1.0,3.0,92,0.00,,,0.00,0,Wunderground v.1.15,2013-02-13 06:28:00,
2013-02-13 01:33:00,29.1,27.3,29.90,NNE,30,1.0,1.0,93,0.00,,,0.00,0,Wunderground v.1.15,2013-02-13 06:33:00,
2013-02-13 01:38:00,29.1,27.3,29.90,NE,34,1.0,2.0,93,0.00,,,0.00,0,Wunderground v.1.15,2013-02-13 06:38:00,
2013-02-13 01:44:00,28.9,27.1,29.90,NNE,32,0.0,0.0,93,0.00,,,0.00,0,Wunderground v.1.15,2013-02-13 06:44:00,
2013-02-13 01:49:00,28.9,27.1,29.90,NNE,33,0.0,0.0,93,0.00,,,0.00,0,Wunderground v.1.15,2013-02-13 06:49:00,
2013-02-13 01:55:00,28.8,27.0,29.89,NNE,32,0.0,0.0,93,0.00,,,0.00,0,Wunderground v.1.15,2013-02-13 06:55:00,
2013-02-13 02:00:00,28.8,26.8,29.89,NNE,32,1.0,3.0,92,0.00,,,0.00,0,Wunderground v.1.15,2013-02-13 07:00:00,
2013-02-13 02:06:00,28.8,26.8,29.90,NNE,33,1.0,3.0,92,0.00,,,0.00,0,Wunderground v.1.15,2013-02-13 07:06:00,
2013-02-13 02:11:00,28.9,26.9,29.90,NE,34,1.0,2.0,92,0.00,,,0.00,0,Wunderground v.1.15,2013-02-13 07:11:00,
2013-02-13 02:17:00,28.9,27.1,29.90,NNE,32,2.0,3.0,93,0.00,,,0.00,0,Wunderground v.1.15,2013-02-13 07:17:00,
2013-02-13 02:22:00,28.8,27.0,29.90,NE,36,2.0,3.0,93,0.00,,,0.00,0,Wunderground v.1.15,2013-02-13 07:22:00,
2013-02-13 02:27:00,28.7,26.7,29.90,NE,34,2.0,3.0,92,0.00,,,0.00,0,Wunderground v.1.15,2013-02-13 07:27:00,
2013-02-13 02:33:00,28.5,26.2,29.90,NNE,30,1.0,1.0,91,0.00,,,0.00,0,Wunderground v.1.15,2013-02-13 07:33:00,
2013-02-13 02:38:00,28.3,26.0,29.89,NNE,30,0.0,2.0,91,0.00,,,0.00,0,Wunderground v.1.15,2013-02-13 07:38:00,
2013-02-13 02:43:00,28.2,26.2,29.89,NNE,33,1.0,2.0,92,0.00,,,0.00,0,Wunderground v.1.15,2013-02-13 07:43:00,
2013-02-13 02:49:00,28.1,26.3,29.89,West,269,2.0,4.0,93,0.00,,,0.00,0,Wunderground v.1.15,2013-02-13 07:49:00,
2013-02-13 02:54:00,28.1,26.3,29.89,West,269,2.0,2.0,93,0.00,,,0.00,0,Wunderground v.1.15,2013-02-13 07:54:00,
2013-02-13 02:59:00,28.0,26.2,29.88,West,270,0.0,2.0,93,0.00,,,0.00,0,Wunderground v.1.15,2013-02-13 07:59:00,
2013-02-13 03:05:00,27.9,25.9,29.88,West,271,0.0,0.0,92,0.00,,,0.00,0,Wunderground v.1.15,2013-02-13 08:05:00,
2013-02-13 03:11:00,27.8,26.0,29.88,West,269,0.0,0.0,93,0.00,,,0.00,0,Wunderground v.1.15,2013-02-13 08:11:00,
2013-02-13 03:16:00,27.7,25.9,29.88,West,269,0.0,0.0,93,0.00,,,0.00,0,Wunderground v.1.15,2013-02-13 08:16:00,
2013-02-13 03:21:00,27.6,25.8,29.87,West,267,0.0,0.0,93,0.00,,,0.00,0,Wunderground v.1.15,2013-02-13 08:21:00,
2013-02-13 03:26:00,27.5,26.0,29.87,West,270,0.0,1.0,94,0.00,,,0.00,0,Wunderground v.1.15,2013-02-13 08:26:00,
2013-02-13 03:32:00,27.5,26.0,29.87,West,271,0.0,0.0,94,0.00,,,0.00,0,Wunderground v.1.15,2013-02-13 08:32:00,
2013-02-13 03:37:00,27.4,25.9,29.87,West,269,0.0,2.0,94,0.00,,,0.00,0,Wunderground v.1.15,2013-02-13 08:37:00,
2013-02-13 03:43:00,27.4,25.9,29.87,West,269,0.0,0.0,94,0.00,,,0.00,0,Wunderground v.1.15,2013-02-13 08:43:00,
2013-02-13 03:48:00,27.4,25.9,29.87,West,269,0.0,1.0,94,0.00,,,0.00,0,Wunderground v.1.15,2013-02-13 08:48:00,
2013-02-13 03:53:00,27.4,25.6,29.87,West,269,1.0,2.0,93,0.00,,,0.00,0,Wunderground v.1.15,2013-02-13 08:53:00,
2013-02-13 03:59:00,27.5,25.7,29.87,West,267,1.0,2.0,93,0.00,,,0.00,0,Wunderground v.1.15,2013-02-13 08:59:00,
2013-02-13 04:04:00,27.7,26.2,29.87,West,271,1.0,3.0,94,0.00,,,0.00,0,Wunderground v.1.15,2013-02-13 09:04:00,
2013-02-13 04:10:00,27.8,26.3,29.87,WSW,244,3.0,3.0,94,0.00,,,0.00,0,Wunderground v.1.15,2013-02-13 09:10:00,
2013-02-13 04:15:00,27.9,26.4,29.87,WSW,246,3.0,4.0,94,0.00,,,0.00,0,Wunderground v.1.15,2013-02-13 09:15:00,
2013-02-13 04:20:00,28.0,26.5,29.87,WSW,244,2.0,2.0,94,0.00,,,0.00,0,Wunderground v.1.15,2013-02-13 09:20:00,
2013-02-13 04:26:00,28.2,26.7,29.88,WSW,246,1.0,2.0,94,0.00,,,0.00,0,Wunderground v.1.15,2013-02-13 09:26:00,
2013-02-13 04:31:00,28.3,26.8,29.87,WSW,246,0.0,0.0,94,0.00,,,0.00,0,Wunderground v.1.15,2013-02-13 09:31:00,
2013-02-13 04:36:00,28.3,26.5,29.87,WSW,247,0.0,0.0,93,0.00,,,0.00,0,Wunderground v.1.15,2013-02-13 09:36:00,
2013-02-13 04:42:00,28.4,26.6,29.87,WSW,245,0.0,0.0,93,0.00,,,0.00,0,Wunderground v.1.15,2013-02-13 09:42:00,
2013-02-13 04:47:00,28.5,26.7,29.87,WSW,244,0.0,0.0,93,0.00,,,0.00,0,Wunderground v.1.15,2013-02-13 09:47:00,
2013-02-13 04:52:00,28.6,26.6,29.87,WSW,244,0.0,1.0,92,0.00,,,0.00,0,Wunderground v.1.15,2013-02-13 09:52:00,
2013-02-13 04:58:00,28.6,26.6,29.87,WSW,245,0.0,3.0,92,0.00,,,0.00,0,Wunderground v.1.15,2013-02-13 09:58:00,
2013-02-13 05:04:00,28.6,26.8,29.87,WSW,246,1.0,3.0,93,0.00,,,0.00,0,Wunderground v.1.15,2013-02-13 10:04:00,
2013-02-13 05:09:00,28.6,26.8,29.87,WSW,244,1.0,3.0,93,0.00,,,0.00,0,Wunderground v.1.15,2013-02-13 10:09:00,
2013-02-13 05:14:00,28.5,26.7,29.87,WSW,244,0.0,1.0,93,0.00,,,0.00,0,Wunderground v.1.15,2013-02-13 10:14:00,
2013-02-13 05:20:00,28.6,26.8,29.87,WSW,246,0.0,0.0,93,0.00,,,0.00,0,Wunderground v.1.15,2013-02-13 10:20:00,
2013-02-13 05:25:00,28.7,26.9,29.87,WSW,244,0.0,0.0,93,0.00,,,0.00,0,Wunderground v.1.15,2013-02-13 10:25:00,
2013-02-13 05:30:00,28.7,26.9,29.86,WSW,244,0.0,0.0,93,0.00,,,0.00,0,Wunderground v.1.15,2013-02-13 10:30:00,
2013-02-13 05:35:00,28.8,27.0,29.86,WSW,246,0.0,0.0,93,0.00,,,0.00,0,Wunderground v.1.15,2013-02-13 10:35:00,
2013-02-13 05:41:00,28.8,27.0,29.86,WSW,246,0.0,0.0,93,0.00,,,0.00,0,Wunderground v.1.15,2013-02-13 10:41:00,
2013-02-13 05:46:00,28.8,27.0,29.86,WSW,245,0.0,0.0,93,0.00,,,0.00,0,Wunderground v.1.15,2013-02-13 10:46:00,
2013-02-13 05:52:00,29.0,27.2,29.86,WSW,246,0.0,0.0,93,0.00,,,0.00,0,Wunderground v.1.15,2013-02-13 10:52:00,
2013-02-13 05:57:00,29.2,27.4,29.86,WSW,247,0.0,0.0,93,0.00,,,0.00,0,Wunderground v.1.15,2013-02-13 10:57:00,
2013-02-13 06:03:00,29.3,27.5,29.85,WSW,244,0.0,0.0,93,0.00,,,0.00,0,Wunderground v.1.15,2013-02-13 11:03:00,
2013-02-13 06:08:00,29.4,27.4,29.85,WSW,246,0.0,0.0,92,0.00,,,0.00,0,Wunderground v.1.15,2013-02-13 11:08:00,
2013-02-13 06:13:00,29.5,27.5,29.85,WSW,248,0.0,0.0,92,0.00,,,0.00,0,Wunderground v.1.15,2013-02-13 11:13:00,
2013-02-13 06:19:00,29.5,27.5,29.85,WSW,245,0.0,0.0,92,0.00,,,0.00,0,Wunderground v.1.15,2013-02-13 11:19:00,
2013-02-13 06:24:00,29.5,27.5,29.85,WSW,244,0.0,0.0,92,0.00,,,0.00,0,Wunderground v.1.15,2013-02-13 11:24:00,
2013-02-13 06:29:00,29.6,27.6,29.84,WSW,244,0.0,0.0,92,0.00,,,0.00,0,Wunderground v.1.15,2013-02-13 11:29:00,
2013-02-13 06:35:00,29.7,27.4,29.84,WSW,245,0.0,0.0,91,0.00,,,0.00,0,Wunderground v.1.15,2013-02-13 11:35:00,
2013-02-13 06:40:00,29.8,27.5,29.83,WSW,246,0.0,0.0,91,0.00,,,0.00,0,Wunderground v.1.15,2013-02-13 11:40:00,
2013-02-13 06:46:00,26.1,23.8,29.83,WSW,245,0.0,0.0,91,0.00,,,0.00,0,Wunderground v.1.15,2013-02-13 11:46:00,
2013-02-13 06:52:00,25.9,23.4,29.83,WSW,245,0.0,0.0,90,0.00,,,0.00,0,Wunderground v.1.15,2013-02-13 11:52:00,
2013-02-13 06:57:00,25.5,23.2,29.83,WSW,246,0.0,1.0,91,0.00,,,0.00,0,Wunderground v.1.15,2013-02-13 11:57:00,
2013-02-13 07:13:00,25.3,23.6,29.83,WSW,246,0.0,0.0,93,0.00,,,0.00,7,Wunderground v.1.15,2013-02-13 12:13:00,
2013-02-13 07:19:00,25.3,23.6,29.83,WSW,246,0.0,0.0,93,0.00,,,0.00,12,Wunderground v.1.15,2013-02-13 12:19:00,
2013-02-13 07:24:00,25.4,23.7,29.83,WSW,244,0.0,0.0,93,0.00,,,0.00,18,Wunderground v.1.15,2013-02-13 12:24:00,
2013-02-13 07:30:00,25.5,23.8,29.83,WSW,245,0.0,0.0,93,0.00,,,0.00,35,Wunderground v.1.15,2013-02-13 12:30:00,
2013-02-13 07:35:00,25.7,24.0,29.83,WSW,245,0.0,0.0,93,0.00,,,0.00,35,Wunderground v.1.15,2013-02-13 12:35:00,
2013-02-13 07:40:00,25.9,23.9,29.83,WSW,243,0.0,0.0,92,0.00,,,0.00,39,Wunderground v.1.15,2013-02-13 12:40:00,
2013-02-13 07:46:00,26.1,24.1,29.83,WSW,246,0.0,1.0,92,0.00,,,0.00,37,Wunderground v.1.15,2013-02-13 12:46:00,
2013-02-13 07:51:00,26.2,24.2,29.84,WSW,244,1.0,3.0,92,0.00,,,0.00,56,Wunderground v.1.15,2013-02-13 12:51:00,
2013-02-13 07:56:00,26.3,24.6,29.84,WSW,246,2.0,3.0,93,0.00,,,0.00,63,Wunderground v.1.15,2013-02-13 12:56:00,
2013-02-13 08:02:00,26.5,24.8,29.84,WSW,246,1.0,1.0,93,0.00,,,0.00,83,Wunderground v.1.15,2013-02-13 13:02:00,
2013-02-13 08:08:00,26.6,24.6,29.84,WSW,244,0.0,1.0,92,0.00,,,0.00,58,Wunderground v.1.15,2013-02-13 13:08:00,
2013-02-13 08:13:00,26.8,24.8,29.84,WSW,247,0.0,0.0,92,0.00,,,0.00,70,Wunderground v.1.15,2013-02-13 13:13:00,
2013-02-13 08:18:00,27.0,25.0,29.83,WSW,244,0.0,2.0,92,0.00,,,0.00,116,Wunderground v.1.15,2013-02-13 13:18:00,
2013-02-13 08:24:00,27.0,25.0,29.83,WSW,245,1.0,3.0,92,0.00,,,0.00,102,Wunderground v.1.15,2013-02-13 13:24:00,
2013-02-13 08:29:00,27.3,25.3,29.83,WSW,247,1.0,3.0,92,0.00,,,0.00,125,Wunderground v.1.15,2013-02-13 13:29:00,
2013-02-13 08:34:00,27.5,25.2,29.83,WSW,243,0.0,1.0,91,0.00,,,0.00,132,Wunderground v.1.15,2013-02-13 13:34:00,
2013-02-13 08:40:00,28.0,25.2,29.83,WSW,246,0.0,0.0,89,0.00,,,0.00,114,Wunderground v.1.15,2013-02-13 13:40:00,
2013-02-13 08:45:00,28.5,25.7,29.83,WSW,246,0.0,0.0,89,0.00,,,0.00,120,Wunderground v.1.15,2013-02-13 13:45:00,
2013-02-13 08:50:00,28.9,25.8,29.83,WSW,244,0.0,0.0,88,0.00,,,0.00,121,Wunderground v.1.15,2013-02-13 13:50:00,
2013-02-13 08:56:00,29.3,25.9,29.82,North,360,0.0,0.0,87,0.00,,,0.00,123,Wunderground v.1.15,2013-02-13 13:56:00,
2013-02-13 09:02:00,29.7,25.7,29.82,WSW,244,0.0,0.0,85,0.00,,,0.00,134,Wunderground v.1.15,2013-02-13 14:02:00,
2013-02-13 09:07:00,30.2,26.2,29.82,WSW,246,0.0,0.0,85,0.00,,,0.00,153,Wunderground v.1.15,2013-02-13 14:07:00,
2013-02-13 09:12:00,30.6,26.3,29.82,North,360,0.0,0.0,84,0.00,,,0.00,134,Wunderground v.1.15,2013-02-13 14:12:00,
2013-02-13 09:17:00,30.9,26.9,29.82,WSW,246,0.0,0.0,85,0.00,,,0.00,176,Wunderground v.1.15,2013-02-13 14:17:00,
2013-02-13 09:23:00,31.0,26.7,29.81,North,360,0.0,1.0,84,0.00,,,0.00,220,Wunderground v.1.15,2013-02-13 14:23:00,
2013-02-13 09:28:00,31.0,27.0,29.81,WSW,247,0.0,1.0,85,0.00,,,0.00,176,Wunderground v.1.15,2013-02-13 14:28:00,
2013-02-13 09:33:00,31.0,27.3,29.80,WSW,245,0.0,1.0,86,0.00,,,0.00,248,Wunderground v.1.15,2013-02-13 14:33:00,
2013-02-13 09:39:00,31.2,26.9,29.80,WSW,246,0.0,1.0,84,0.00,,,0.00,229,Wunderground v.1.15,2013-02-13 14:39:00,
2013-02-13 09:44:00,31.5,27.8,29.81,WSW,244,1.0,3.0,86,0.00,,,0.00,207,Wunderground v.1.15,2013-02-13 14:44:00,
2013-02-13 09:49:00,31.8,28.1,29.81,WSW,244,1.0,3.0,86,0.00,,,0.00,223,Wunderground v.1.15,2013-02-13 14:49:00,
2013-02-13 09:55:00,32.1,27.5,29.81,WSW,244,0.0,1.0,83,0.00,,,0.00,251,Wunderground v.1.15,2013-02-13 14:55:00,
2013-02-13 10:00:00,32.5,27.6,29.81,North,360,0.0,0.0,82,0.00,,,0.00,163,Wunderground v.1.15,2013-02-13 15:00:00,
2013-02-13 10:06:00,32.7,27.8,29.81,WSW,246,0.0,0.0,82,0.00,,,0.00,183,Wunderground v.1.15,2013-02-13 15:06:00,
2013-02-13 10:11:00,32.9,28.0,29.81,North,360,0.0,0.0,82,0.00,,,0.00,169,Wunderground v.1.15,2013-02-13 15:11:00,
2013-02-13 10:17:00,33.2,28.3,29.81,WSW,243,0.0,2.0,82,0.00,,,0.00,207,Wunderground v.1.15,2013-02-13 15:17:00,
2013-02-13 10:22:00,33.4,28.8,29.82,WSW,245,0.0,1.0,83,0.00,,,0.00,148,Wunderground v.1.15,2013-02-13 15:22:00,
2013-02-13 10:27:00,33.5,28.0,29.81,WSW,245,1.0,2.0,80,0.00,,,0.00,111,Wunderground v.1.15,2013-02-13 15:27:00,
2013-02-13 10:32:00,33.4,27.9,29.81,WSW,244,0.0,1.0,80,0.00,,,0.00,146,Wunderground v.1.15,2013-02-13 15:32:00,
2013-02-13 10:38:00,33.5,27.4,29.80,NNE,29,2.0,4.0,78,0.00,,,0.00,153,Wunderground v.1.15,2013-02-13 15:38:00,
2013-02-13 10:43:00,33.6,27.5,29.79,NNE,29,2.0,2.0,78,0.00,,,0.00,127,Wunderground v.1.15,2013-02-13 15:43:00,
2013-02-13 10:49:00,33.7,27.6,29.78,NNE,23,2.0,4.0,78,0.00,,,0.00,127,Wunderground v.1.15,2013-02-13 15:49:00,
2013-02-13 10:54:00,33.8,27.4,29.77,NE,52,3.0,4.0,77,0.00,,,0.00,223,Wunderground v.1.15,2013-02-13 15:54:00,
2013-02-13 10:59:00,34.1,27.6,29.77,NNE,29,3.0,5.0,77,0.00,,,0.00,431,Wunderground v.1.15,2013-02-13 15:59:00,
2013-02-13 11:05:00,34.9,29.0,29.76,NNE,26,3.0,4.0,79,0.00,,,0.00,596,Wunderground v.1.15,2013-02-13 16:05:00,
2013-02-13 11:10:00,35.5,28.0,29.75,NNE,29,4.0,4.0,74,0.00,,,0.00,475,Wunderground v.1.15,2013-02-13 16:10:00,
2013-02-13 11:16:00,35.9,28.1,29.75,ENE,61,4.0,7.0,73,0.00,,,0.00,250,Wunderground v.1.15,2013-02-13 16:16:00,
2013-02-13 11:21:00,35.9,27.7,29.76,NE,46,3.0,4.0,72,0.00,,,0.00,132,Wunderground v.1.15,2013-02-13 16:21:00,
2013-02-13 11:27:00,35.9,27.4,29.77,North,360,2.0,4.0,71,0.00,,,0.00,107,Wunderground v.1.15,2013-02-13 16:27:00,
2013-02-13 11:32:00,35.9,27.4,29.78,North,355,1.0,2.0,71,0.00,,,0.00,142,Wunderground v.1.15,2013-02-13 16:32:00,
2013-02-13 11:38:00,36.0,27.2,29.78,North,360,1.0,2.0,70,0.00,,,0.00,139,Wunderground v.1.15,2013-02-13 16:38:00,
2013-02-13 11:43:00,36.0,27.5,29.78,North,355,2.0,3.0,71,0.00,,,0.00,132,Wunderground v.1.15,2013-02-13 16:43:00,
2013-02-13 11:48:00,36.2,27.7,29.77,North,355,2.0,4.0,71,0.00,,,0.00,230,Wunderground v.1.15,2013-02-13 16:48:00,
2013-02-13 11:53:00,36.3,27.8,29.77,North,9,3.0,3.0,71,0.00,,,0.00,343,Wunderground v.1.15,2013-02-13 16:53:00,
2013-02-13 11:59:00,36.5,28.0,29.76,NNE,32,3.0,4.0,71,0.00,,,0.00,262,Wunderground v.1.15,2013-02-13 16:59:00,
2013-02-13 12:05:00,36.8,28.6,29.76,NE,44,4.0,5.0,72,0.00,,,0.00,176,Wunderground v.1.15,2013-02-13 17:05:00,
2013-02-13 12:10:00,36.9,28.0,29.76,NE,49,3.0,4.0,70,0.00,,,0.00,237,Wunderground v.1.15,2013-02-13 17:10:00,
2013-02-13 12:15:00,36.9,28.0,29.76,NE,46,2.0,4.0,70,0.00,,,0.00,248,Wunderground v.1.15,2013-02-13 17:15:00,
2013-02-13 12:21:00,36.9,28.0,29.75,ENE,69,4.0,5.0,70,0.00,,,0.00,223,Wunderground v.1.15,2013-02-13 17:21:00,
2013-02-13 12:26:00,36.9,28.4,29.75,ENE,65,4.0,5.0,71,0.00,,,0.00,323,Wunderground v.1.15,2013-02-13 17:26:00,
2013-02-13 12:31:00,37.3,29.8,29.75,East,79,3.0,5.0,74,0.00,,,0.00,450,Wunderground v.1.15,2013-02-13 17:31:00,
2013-02-13 12:37:00,37.8,29.9,29.74,East,84,4.0,6.0,73,0.00,,,0.00,294,Wunderground v.1.15,2013-02-13 17:37:00,
2013-02-13 12:43:00,38.0,28.7,29.74,ESE,109,4.0,5.0,69,0.00,,,0.00,135,Wunderground v.1.15,2013-02-13 17:43:00,
2013-02-13 12:48:00,37.9,29.0,29.74,ESE,113,3.0,5.0,70,0.00,,,0.00,127,Wunderground v.1.15,2013-02-13 17:48:00,
2013-02-13 12:54:00,37.9,27.9,29.74,ESE,113,1.0,3.0,67,0.00,,,0.00,90,Wunderground v.1.15,2013-02-13 17:54:00,
2013-02-13 12:59:00,37.8,28.2,29.73,ESE,113,1.0,3.0,68,0.00,,,0.00,148,Wunderground v.1.15,2013-02-13 17:59:00,
2013-02-13 13:05:00,37.7,28.4,29.73,NE,39,1.0,2.0,69,0.00,,,0.00,151,Wunderground v.1.15,2013-02-13 18:05:00,
2013-02-13 13:10:00,37.6,28.0,29.73,NE,44,1.0,1.0,68,0.00,,,0.00,155,Wunderground v.1.15,2013-02-13 18:10:00,
2013-02-13 13:15:00,37.6,28.3,29.72,NE,42,0.0,1.0,69,0.00,,,0.00,172,Wunderground v.1.15,2013-02-13 18:15:00,
2013-02-13 13:21:00,37.7,28.4,29.73,NE,40,0.0,0.0,69,0.00,,,0.00,178,Wunderground v.1.15,2013-02-13 18:21:00,
2013-02-13 13:26:00,38.0,28.7,29.72,ENE,64,0.0,3.0,69,0.00,,,0.00,178,Wunderground v.1.15,2013-02-13 18:26:00,
2013-02-13 13:31:00,38.2,29.6,29.72,ESE,115,1.0,4.0,71,0.00,,,0.00,132,Wunderground v.1.15,2013-02-13 18:31:00,
2013-02-13 13:37:00,38.1,30.2,29.72,SSE,159,3.0,7.0,73,0.00,,,0.00,134,Wunderground v.1.15,2013-02-13 18:37:00,
2013-02-13 13:42:00,37.9,30.7,29.71,SSE,162,4.0,4.0,75,0.00,,,0.00,120,Wunderground v.1.15,2013-02-13 18:42:00,
2013-02-13 13:47:00,37.5,30.0,29.71,SE,146,3.0,4.0,74,0.00,,,0.00,125,Wunderground v.1.15,2013-02-13 18:47:00,
2013-02-13 13:53:00,37.3,30.4,29.70,SE,146,1.0,2.0,76,0.00,,,0.00,118,Wunderground v.1.15,2013-02-13 18:53:00,
2013-02-13 13:58:00,37.3,31.1,29.71,SE,146,1.0,2.0,78,0.00,,,0.00,100,Wunderground v.1.15,2013-02-13 18:58:00,
2013-02-13 14:04:00,37.1,30.2,29.71,SSE,148,1.0,1.0,76,0.00,,,0.00,160,Wunderground v.1.15,2013-02-13 19:04:00,
2013-02-13 14:09:00,37.1,30.6,29.70,SE,146,0.0,1.0,77,0.00,,,0.00,186,Wunderground v.1.15,2013-02-13 19:09:00,
2013-02-13 14:15:00,37.2,30.3,29.70,SSE,148,0.0,0.0,76,0.00,,,0.00,188,Wunderground v.1.15,2013-02-13 19:15:00,
2013-02-13 14:20:00,37.3,30.7,29.70,SSE,149,1.0,2.0,77,0.00,,,0.00,192,Wunderground v.1.15,2013-02-13 19:20:00,
2013-02-13 14:25:00,37.4,31.2,29.69,SSE,148,1.0,2.0,78,0.00,,,0.00,220,Wunderground v.1.15,2013-02-13 19:25:00,
2013-02-13 14:30:00,37.5,31.3,29.69,SSE,148,1.0,2.0,78,0.00,,,0.00,165,Wunderground v.1.15,2013-02-13 19:30:00,
2013-02-13 14:36:00,37.5,31.6,29.69,SSE,148,1.0,2.0,79,0.00,,,0.00,185,Wunderground v.1.15,2013-02-13 19:36:00,
2013-02-13 14:41:00,37.4,31.5,29.68,SSE,148,1.0,1.0,79,0.00,,,0.00,156,Wunderground v.1.15,2013-02-13 19:41:00,
2013-02-13 14:47:00,37.1,31.2,29.68,SE,144,0.0,1.0,79,0.00,,,0.00,169,Wunderground v.1.15,2013-02-13 19:47:00,
2013-02-13 14:52:00,36.9,31.9,29.68,South,171,0.0,4.0,82,0.00,,,0.00,211,Wunderground v.1.15,2013-02-13 19:52:00,
2013-02-13 14:57:00,36.9,33.4,29.68,SSE,163,2.0,5.0,87,0.00,,,0.00,148,Wunderground v.1.15,2013-02-13 19:57:00,
2013-02-13 15:03:00,36.6,33.7,29.68,SE,142,3.0,4.0,89,0.00,,,0.00,151,Wunderground v.1.15,2013-02-13 20:03:00,
2013-02-13 15:08:00,36.3,33.4,29.68,SE,143,2.0,4.0,89,0.00,,,0.00,98,Wunderground v.1.15,2013-02-13 20:08:00,
2013-02-13 15:14:00,36.2,33.8,29.68,SE,142,2.0,2.0,91,0.00,,,0.00,60,Wunderground v.1.15,2013-02-13 20:14:00,
2013-02-13 15:19:00,36.0,33.6,29.68,SE,146,2.0,2.0,91,0.00,,,0.00,46,Wunderground v.1.15,2013-02-13 20:19:00,
2013-02-13 15:24:00,35.7,33.3,29.68,SSE,152,1.0,2.0,91,0.00,,,0.01,70,Wunderground v.1.15,2013-02-13 20:24:00,
2013-02-13 15:30:00,35.4,33.3,29.68,SSE,149,0.0,0.0,92,0.00,,,0.01,54,Wunderground v.1.15,2013-02-13 20:30:00,
2013-02-13 15:35:00,35.1,32.7,29.68,SSE,150,0.0,0.0,91,0.00,,,0.01,58,Wunderground v.1.15,2013-02-13 20:35:00,
2013-02-13 15:40:00,34.8,33.0,29.67,SSE,148,0.0,0.0,93,0.00,,,0.01,35,Wunderground v.1.15,2013-02-13 20:40:00,
2013-02-13 15:46:00,34.6,32.8,29.67,SSE,150,0.0,1.0,93,0.00,,,0.01,47,Wunderground v.1.15,2013-02-13 20:46:00,
2013-02-13 15:51:00,34.4,32.9,29.67,SSE,149,0.0,0.0,94,0.00,,,0.01,32,Wunderground v.1.15,2013-02-13 20:51:00,
2013-02-13 15:56:00,34.3,33.0,29.67,SSE,148,0.0,0.0,95,0.00,,,0.01,53,Wunderground v.1.15,2013-02-13 20:56:00,
2013-02-13 16:02:00,34.1,33.1,29.66,SSE,150,0.0,1.0,96,0.00,,,0.01,54,Wunderground v.1.15,2013-02-13 21:02:00,
2013-02-13 16:08:00,33.9,32.9,29.66,SSE,148,0.0,1.0,96,0.00,,,0.02,32,Wunderground v.1.15,2013-02-13 21:08:00,
2013-02-13 16:13:00,33.8,33.0,29.67,SSE,147,0.0,0.0,97,0.00,,,0.02,21,Wunderground v.1.15,2013-02-13 21:13:00,
2013-02-13 16:18:00,33.7,32.9,29.67,SSE,149,0.0,0.0,97,0.00,,,0.02,16,Wunderground v.1.15,2013-02-13 21:18:00,
2013-02-13 16:24:00,33.6,33.1,29.67,SSE,148,0.0,0.0,98,0.00,,,0.02,14,Wunderground v.1.15,2013-02-13 21:24:00,
2013-02-13 16:29:00,33.5,33.0,29.67,SSE,148,0.0,2.0,98,0.00,,,0.02,14,Wunderground v.1.15,2013-02-13 21:29:00,
2013-02-13 16:34:00,33.5,33.2,29.67,SSE,148,1.0,3.0,99,0.00,,,0.02,12,Wunderground v.1.15,2013-02-13 21:34:00,
2013-02-13 16:40:00,33.3,33.0,29.67,SE,144,1.0,1.0,99,0.00,,,0.02,12,Wunderground v.1.15,2013-02-13 21:40:00,
2013-02-13 16:45:00,33.3,33.0,29.66,SE,146,0.0,1.0,99,0.00,,,0.03,14,Wunderground v.1.15,2013-02-13 21:45:00,
2013-02-13 16:50:00,33.2,33.0,29.66,SE,146,0.0,0.0,99,0.00,,,0.03,12,Wunderground v.1.15,2013-02-13 21:50:00,
2013-02-13 16:56:00,33.1,33.1,29.67,SE,145,0.0,0.0,100,0.00,,,0.03,9,Wunderground v.1.15,2013-02-13 21:56:00,
2013-02-13 17:02:00,33.1,33.1,29.67,SE,146,0.0,0.0,100,0.00,,,0.03,11,Wunderground v.1.15,2013-02-13 22:02:00,
2013-02-13 17:07:00,33.1,33.1,29.67,SE,146,0.0,0.0,100,0.00,,,0.03,9,Wunderground v.1.15,2013-02-13 22:07:00,
2013-02-13 17:12:00,33.2,33.2,29.68,SE,144,0.0,0.0,100,0.00,,,0.03,9,Wunderground v.1.15,2013-02-13 22:12:00,
2013-02-13 17:18:00,33.1,33.1,29.68,SE,144,0.0,0.0,100,0.00,,,0.03,7,Wunderground v.1.15,2013-02-13 22:18:00,
2013-02-13 17:23:00,33.1,33.1,29.68,SE,146,0.0,0.0,100,0.00,,,0.03,11,Wunderground v.1.15,2013-02-13 22:23:00,
2013-02-13 17:28:00,33.0,33.0,29.68,SE,146,0.0,0.0,100,0.00,,,0.04,9,Wunderground v.1.15,2013-02-13 22:28:00,
2013-02-13 17:34:00,33.0,33.0,29.68,SE,143,0.0,0.0,100,0.00,,,0.04,5,Wunderground v.1.15,2013-02-13 22:34:00,
2013-02-13 17:39:00,33.0,33.0,29.69,SE,145,0.0,0.0,100,0.00,,,0.04,0,Wunderground v.1.15,2013-02-13 22:39:00,
2013-02-13 17:44:00,32.9,32.9,29.69,SE,146,0.0,1.0,100,0.00,,,0.05,0,Wunderground v.1.15,2013-02-13 22:44:00,
2013-02-13 17:50:00,32.9,32.9,29.69,SE,143,0.0,0.0,100,0.00,,,0.05,0,Wunderground v.1.15,2013-02-13 22:50:00,
2013-02-13 17:55:00,32.8,32.8,29.69,SE,144,0.0,0.0,100,0.05,,,0.06,0,Wunderground v.1.15,2013-02-13 22:55:00,
2013-02-13 18:00:00,32.8,32.8,29.70,SE,144,0.0,0.0,100,0.05,,,0.06,0,Wunderground v.1.15,2013-02-13 23:00:00,
2013-02-13 18:06:00,32.7,32.7,29.70,SE,146,0.0,0.0,100,0.05,,,0.06,0,Wunderground v.1.15,2013-02-13 23:06:00,
2013-02-13 18:12:00,32.7,32.7,29.70,SE,144,0.0,0.0,100,0.04,,,0.07,0,Wunderground v.1.15,2013-02-13 23:12:00,
2013-02-13 18:17:00,32.6,32.6,29.70,SE,145,0.0,0.0,100,0.04,,,0.07,0,Wunderground v.1.15,2013-02-13 23:17:00,
2013-02-13 18:22:00,32.5,32.5,29.70,SE,144,0.0,0.0,100,0.04,,,0.07,0,Wunderground v.1.15,2013-02-13 23:22:00,
2013-02-13 18:28:00,32.4,32.4,29.70,SE,144,0.0,0.0,100,0.00,,,0.07,0,Wunderground v.1.15,2013-02-13 23:28:00,
2013-02-13 18:33:00,32.3,32.3,29.71,SSE,148,0.0,0.0,100,0.00,,,0.07,0,Wunderground v.1.15,2013-02-13 23:33:00,
2013-02-13 18:38:00,32.2,32.2,29.71,SE,145,0.0,1.0,100,0.00,,,0.07,0,Wunderground v.1.15,2013-02-13 23:38:00,
2013-02-13 18:44:00,32.1,32.1,29.71,SE,144,1.0,1.0,100,0.00,,,0.08,0,Wunderground v.1.15,2013-02-13 23:44:00,
2013-02-13 18:50:00,32.1,32.1,29.71,SE,144,0.0,2.0,100,0.00,,,0.08,0,Wunderground v.1.15,2013-02-13 23:50:00,
2013-02-13 18:55:00,32.0,32.0,29.72,SSE,147,1.0,2.0,100,0.00,,,0.08,0,Wunderground v.1.15,2013-02-13 23:55:00,
2013-02-13 19:00:00,31.9,31.9,29.72,SSE,147,0.0,0.0,100,0.00,,,0.08,0,Wunderground v.1.15,2013-02-14 00:00:00,
2013-02-13 19:06:00,31.7,31.7,29.72,SE,128,1.0,3.0,100,0.00,,,0.09,0,Wunderground v.1.15,2013-02-14 00:06:00,
2013-02-13 19:12:00,31.7,31.7,29.72,SE,128,1.0,1.0,100,0.00,,,0.09,0,Wunderground v.1.15,2013-02-14 00:12:00,
2013-02-13 19:17:00,31.5,31.5,29.72,ESE,123,0.0,1.0,100,0.00,,,0.09,0,Wunderground v.1.15,2013-02-14 00:17:00,
2013-02-13 19:23:00,31.5,31.5,29.73,SE,127,0.0,0.0,100,0.00,,,0.09,0,Wunderground v.1.15,2013-02-14 00:23:00,
2013-02-13 19:28:00,31.5,31.5,29.73,SE,126,0.0,0.0,100,0.00,,,0.09,0,Wunderground v.1.15,2013-02-14 00:28:00,
2013-02-13 19:33:00,31.4,31.4,29.73,SE,127,0.0,0.0,100,0.00,,,0.09,0,Wunderground v.1.15,2013-02-14 00:33:00,
2013-02-13 19:38:00,31.4,31.4,29.73,SE,126,0.0,0.0,100,0.00,,,0.09,0,Wunderground v.1.15,2013-02-14 00:38:00,
2013-02-13 19:43:00,31.4,31.4,29.74,SE,128,0.0,0.0,100,0.00,,,0.09,0,Wunderground v.1.15,2013-02-14 00:43:00,
2013-02-13 19:49:00,31.4,31.4,29.74,SE,126,0.0,0.0,100,0.00,,,0.09,0,Wunderground v.1.15,2013-02-14 00:49:00,
2013-02-13 19:54:00,31.4,31.4,29.74,SE,126,0.0,0.0,100,0.00,,,0.09,0,Wunderground v.1.15,2013-02-14 00:54:00,
2013-02-13 20:00:00,31.3,31.3,29.74,SE,128,0.0,0.0,100,0.00,,,0.09,0,Wunderground v.1.15,2013-02-14 01:00:00,
2013-02-13 20:06:00,31.2,31.2,29.75,SE,126,0.0,0.0,100,0.00,,,0.09,0,Wunderground v.1.15,2013-02-14 01:06:00,
2013-02-13 20:11:00,31.2,31.2,29.75,SE,124,0.0,0.0,100,0.00,,,0.09,0,Wunderground v.1.15,2013-02-14 01:11:00,
2013-02-13 20:16:00,31.1,31.1,29.75,SE,128,0.0,0.0,100,0.00,,,0.10,0,Wunderground v.1.15,2013-02-14 01:16:00,
2013-02-13 20:22:00,31.1,31.1,29.75,SE,128,0.0,0.0,100,0.00,,,0.10,0,Wunderground v.1.15,2013-02-14 01:22:00,
2013-02-13 20:27:00,31.2,31.2,29.76,SE,128,0.0,2.0,100,0.00,,,0.10,0,Wunderground v.1.15,2013-02-14 01:27:00,
2013-02-13 20:32:00,31.3,31.3,29.76,SE,128,0.0,0.0,100,0.00,,,0.10,0,Wunderground v.1.15,2013-02-14 01:32:00,
2013-02-13 20:38:00,31.5,31.5,29.76,SE,126,1.0,2.0,100,0.00,,,0.10,0,Wunderground v.1.15,2013-02-14 01:38:00,
2013-02-13 20:43:00,31.6,31.6,29.76,SE,128,1.0,1.0,100,0.00,,,0.10,0,Wunderground v.1.15,2013-02-14 01:43:00,
2013-02-13 20:48:00,31.7,31.7,29.76,SE,125,0.0,1.0,100,0.00,,,0.10,0,Wunderground v.1.15,2013-02-14 01:48:00,
2013-02-13 20:54:00,31.8,31.8,29.75,SE,126,0.0,2.0,100,0.00,,,0.10,0,Wunderground v.1.15,2013-02-14 01:54:00,
2013-02-13 20:59:00,31.9,31.9,29.75,SE,125,0.0,2.0,100,0.00,,,0.10,0,Wunderground v.1.15,2013-02-14 01:59:00,
2013-02-13 21:05:00,32.0,32.0,29.75,SE,125,0.0,1.0,100,0.00,,,0.10,0,Wunderground v.1.15,2013-02-14 02:05:00,
2013-02-13 21:10:00,32.1,32.1,29.76,SE,128,1.0,1.0,100,0.00,,,0.10,0,Wunderground v.1.15,2013-02-14 02:10:00,
2013-02-13 21:16:00,32.2,32.2,29.76,SE,126,1.0,1.0,100,0.00,,,0.10,0,Wunderground v.1.15,2013-02-14 02:16:00,
2013-02-13 21:21:00,32.3,32.3,29.77,SE,126,0.0,0.0,100,0.00,,,0.10,0,Wunderground v.1.15,2013-02-14 02:21:00,
2013-02-13 21:26:00,32.4,32.4,29.77,SE,126,0.0,0.0,100,0.00,,,0.10,0,Wunderground v.1.15,2013-02-14 02:26:00,
2013-02-13 21:32:00,32.5,32.5,29.77,SE,126,0.0,2.0,100,0.00,,,0.10,0,Wunderground v.1.15,2013-02-14 02:32:00,
2013-02-13 21:37:00,32.4,32.4,29.77,SE,128,0.0,2.0,100,0.00,,,0.10,0,Wunderground v.1.15,2013-02-14 02:37:00,
2013-02-13 21:43:00,32.4,32.4,29.77,SE,126,0.0,1.0,100,0.00,,,0.10,0,Wunderground v.1.15,2013-02-14 02:43:00,
2013-02-13 21:48:00,32.3,32.3,29.77,SE,126,1.0,2.0,100,0.00,,,0.10,0,Wunderground v.1.15,2013-02-14 02:48:00,
2013-02-13 21:54:00,32.2,32.2,29.77,NW,314,2.0,3.0,100,0.00,,,0.10,0,Wunderground v.1.15,2013-02-14 02:54:00,
2013-02-13 21:59:00,31.9,31.9,29.78,NW,326,2.0,3.0,100,0.00,,,0.10,0,Wunderground v.1.15,2013-02-14 02:59:00,
2013-02-13 22:05:00,31.7,31.7,29.78,NW,322,4.0,7.0,100,0.00,,,0.10,0,Wunderground v.1.15,2013-02-14 03:05:00,
2013-02-13 22:10:00,32.0,32.0,29.78,NNW,337,6.0,8.0,100,0.00,,,0.10,0,Wunderground v.1.15,2013-02-14 03:10:00,
2013-02-13 22:16:00,32.3,31.8,29.78,West,259,7.0,8.0,98,0.00,,,0.10,0,Wunderground v.1.15,2013-02-14 03:16:00,
2013-02-13 22:21:00,32.4,31.9,29.78,West,276,5.0,7.0,98,0.00,,,0.10,0,Wunderground v.1.15,2013-02-14 03:21:00,
2013-02-13 22:26:00,32.5,31.5,29.78,WNW,303,4.0,7.0,96,0.00,,,0.10,0,Wunderground v.1.15,2013-02-14 03:26:00,
2013-02-13 22:32:00,32.8,31.3,29.79,West,279,6.0,14.0,94,0.00,,,0.10,0,Wunderground v.1.15,2013-02-14 03:32:00,
2013-02-13 22:37:00,33.0,31.2,29.79,WNW,303,8.0,14.0,93,0.00,,,0.10,0,Wunderground v.1.15,2013-02-14 03:37:00,
2013-02-13 22:43:00,33.0,31.2,29.79,WNW,285,6.0,9.0,93,0.00,,,0.10,0,Wunderground v.1.15,2013-02-14 03:43:00,
2013-02-13 22:48:00,33.1,31.0,29.80,WNW,301,7.0,10.0,92,0.00,,,0.10,0,Wunderground v.1.15,2013-02-14 03:48:00,
2013-02-13 22:54:00,33.3,31.0,29.80,NNW,338,7.0,10.0,91,0.00,,,0.10,0,Wunderground v.1.15,2013-02-14 03:54:00,
2013-02-13 22:59:00,33.4,31.3,29.80,NNW,336,6.0,13.0,92,0.00,,,0.10,0,Wunderground v.1.15,2013-02-14 03:59:00,
2013-02-13 23:05:00,33.3,31.0,29.80,NW,312,8.0,12.0,91,0.00,,,0.10,0,Wunderground v.1.15,2013-02-14 04:05:00,
2013-02-13 23:10:00,33.2,30.9,29.80,West,279,9.0,9.0,91,0.00,,,0.10,0,Wunderground v.1.15,2013-02-14 04:10:00,
2013-02-13 23:16:00,33.2,30.9,29.81,NW,317,10.0,15.0,91,0.00,,,0.10,0,Wunderground v.1.15,2013-02-14 04:16:00,
2013-02-13 23:21:00,33.1,30.8,29.81,WNW,302,8.0,13.0,91,0.00,,,0.10,0,Wunderground v.1.15,2013-02-14 04:21:00,
2013-02-13 23:26:00,33.1,30.8,29.81,NW,304,7.0,13.0,91,0.00,,,0.10,0,Wunderground v.1.15,2013-02-14 04:26:00,
2013-02-13 23:32:00,33.1,30.8,29.81,NNE,14,4.0,6.0,91,0.00,,,0.10,0,Wunderground v.1.15,2013-02-14 04:32:00,
2013-02-13 23:37:00,33.2,31.1,29.81,NNE,14,1.0,6.0,92,0.00,,,0.10,0,Wunderground v.1.15,2013-02-14 04:37:00,
2013-02-13 23:42:00,33.2,31.4,29.81,NNE,13,0.0,1.0,93,0.00,,,0.10,0,Wunderground v.1.15,2013-02-14 04:42:00,
2013-02-13 23:48:00,33.0,30.4,29.81,WNW,286,2.0,9.0,90,0.00,,,0.10,0,Wunderground v.1.15,2013-02-14 04:48:00,
2013-02-13 23:53:00,33.0,30.4,29.81,WNW,285,4.0,9.0,90,0.00,,,0.10,0,Wunderground v.1.15,2013-02-14 04:53:00,
2013-02-13 23:59:00,33.0,30.4,29.82,West,267,6.0,9.0,90,0.00,,,0.00,0,Wunderground v.1.15,2013-02-14 04:59:00,